Tivat, Montenegro

11:02 PM CET on December 12, 2017 (GMT +0100)
Tivat

Weather History for LYTV - December, 2017

Change the Weather History Date:

Thursday, December 7, 2017

  Actual Average Record
Temperature  
Mean Temperature 42 °F -  
Max Temperature 55 °F 53 °F 64 °F (2004)
Min Temperature 29 °F 36 °F 28 °F (1999)
Degree Days  
Heating Degree Days 23    
Moisture  
Dew Point 37 °F    
Average Humidity 88    
Maximum Humidity 100    
Minimum Humidity 49    
Precipitation  
Precipitation 0.00 in - - ()
Sea Level Pressure  
Sea Level Pressure 30.39 in    
Wind  
Wind Speed 1 mph ()    
Max Wind Speed 5 mph    
Max Gust Speed -    
Visibility 7.7 miles    
Events Rain , Thunderstorm    
Averages and records for this station are not official NWS values.
T = Trace of Precipitation, MM = Missing Value Source: Averaged Metar Reports

Daily Weather History Graph

Daily Weather History Graph

Search for Another Location

Airport or City:

Trip Planner

Search our weather history database for the weather conditions in past years. The results will help you decide how hot, cold, wet, or windy it might be!

Date:

Astronomy

Dec. 07, 2017 Rise Set
Actual Time 7:00 AM CET 4:12 PM CET
Civil Twilight 6:29 AM CET 4:43 PM CET
Nautical Twilight 5:53 AM CET 5:19 PM CET
Astronomical Twilight 5:19 AM CET 5:53 PM CET
Moon 8:40 PM CET (12/7) 10:24 AM CET (12/7)
Length of Visible Light 10h 14m
Length of Day
9h 11m
Waning Gibbous, 80% of the Moon is Illuminated
Dec 7
Waning Gibbous
Dec 10
Last Quarter
Dec 18
New
Dec 26
First Quarter
Jan 2
Full

Hourly Weather History & Observations

Time (CET) Temp. Dew Point Humidity Pressure Visibility Wind Dir Wind Speed Gust Speed Precip Events Conditions
12:00 AM 33.8 °F 32.0 °F 93% 30.45 in - Calm Calm - N/A   Clear
12:30 AM 32.0 °F 32.0 °F 100% 30.45 in - Variable 1.2 mph - N/A   Clear
1:00 AM 31 °F 31 °F 100% 30.47 in 12 mi Calm Calm - -  
1:00 AM 32.0 °F 30.2 °F 93% 30.45 in - Variable 1.2 mph - N/A   Clear
1:30 AM 30.2 °F 30.2 °F 100% 30.45 in - Variable 1.2 mph - N/A   Clear
2:00 AM 30.2 °F 30.2 °F 100% 30.45 in - Variable 1.2 mph - N/A   Clear
2:30 AM 30.2 °F 30.2 °F 100% 30.45 in - Variable 1.2 mph - N/A   Clear
3:30 AM 32.0 °F 30.2 °F 93% 30.45 in - Calm Calm - N/A   Clear
4:00 AM 30 °F 30 °F 98% 30.45 in 12 mi Calm Calm - -   Scattered Clouds
4:00 AM 30.2 °F 30.2 °F 100% 30.45 in - Calm Calm - N/A   Clear
4:30 AM 30.2 °F 30.2 °F 100% 30.45 in - Variable 1.2 mph - N/A   Clear
5:00 AM 30.2 °F 30.2 °F 100% 30.45 in - Calm Calm - N/A   Clear
5:30 AM 30.2 °F 28.4 °F 93% 30.45 in - Calm Calm - N/A   Clear
6:00 AM 30.2 °F 28.4 °F 93% 30.45 in - Calm Calm - N/A   Clear
6:30 AM 30.2 °F 30.2 °F 100% 30.45 in - Calm Calm - N/A   Clear
7:00 AM 31 °F 31 °F 99% 30.46 in 12 mi Calm Calm - -   Scattered Clouds
7:00 AM 32.0 °F 30.2 °F 93% 30.45 in - Calm Calm - N/A   Clear
7:30 AM 30.2 °F 30.2 °F 100% 30.45 in - Calm Calm - N/A   Clear
8:00 AM 32.0 °F 30.2 °F 93% 30.45 in - Calm Calm - N/A   Clear
8:30 AM 33.8 °F 33.8 °F 100% 30.45 in - Calm Calm - N/A   Clear
9:00 AM 39.2 °F 39.2 °F 100% 30.45 in - Calm Calm - N/A   Clear
9:30 AM 42.8 °F 41.0 °F 93% 30.45 in 6.2 mi Calm Calm - N/A   Partly Cloudy
10:00 AM 48 °F 40 °F 64% 30.48 in 12 mi Calm Calm - -   Scattered Clouds
10:00 AM 48.2 °F 39.2 °F 71% 30.45 in 6.2 mi West 1.2 mph - N/A   Partly Cloudy
10:30 AM 50.0 °F 39.2 °F 66% 30.45 in 6.2 mi Variable 2.3 mph - N/A   Partly Cloudy
11:00 AM 48.2 °F 39.2 °F 71% 30.45 in 6.2 mi Variable 2.3 mph - N/A   Partly Cloudy
11:30 AM 50.0 °F 39.2 °F 66% 30.45 in 6.2 mi Variable 2.3 mph - N/A   Partly Cloudy
12:00 PM 51.8 °F 39.2 °F 62% 30.42 in 6.2 mi NW 3.5 mph - N/A   Partly Cloudy
12:30 PM 51.8 °F 39.2 °F 62% 30.42 in 6.2 mi Variable 2.3 mph - N/A   Partly Cloudy
1:00 PM 54 °F 40 °F 49% 30.43 in 12 mi NW 2.2 mph - -   Scattered Clouds
1:00 PM 53.6 °F 41.0 °F 62% 30.42 in 6.2 mi WNW 4.6 mph - N/A   Partly Cloudy
1:30 PM 53.6 °F 41.0 °F 62% 30.42 in 6.2 mi West 4.6 mph - N/A   Scattered Clouds
2:00 PM 53.6 °F 41.0 °F 62% 30.39 in 6.2 mi WSW 3.5 mph - N/A   Partly Cloudy
2:39 PM 53.6 °F 41.0 °F 62% 30.39 in 6.2 mi NW 4.6 mph - N/A   Partly Cloudy
3:30 PM 51.8 °F 41.0 °F 67% 30.39 in 6.2 mi WNW 2.3 mph - N/A   Partly Cloudy
4:00 PM 49 °F 43 °F 72% 30.41 in 12 mi Calm Calm - -  
4:00 PM 50.0 °F 42.8 °F 76% 30.39 in - NW 1.2 mph - N/A   Clear
4:30 PM 46.4 °F 41.0 °F 81% 30.39 in - Variable 1.2 mph - N/A   Clear
5:00 PM 44.6 °F 41.0 °F 87% 30.39 in - Calm Calm - N/A   Clear
5:30 PM 42.8 °F 39.2 °F 87% 30.39 in - Calm Calm - N/A   Clear
6:00 PM 39.2 °F 37.4 °F 93% 30.42 in - Variable 1.2 mph - N/A   Clear
6:30 PM 39.2 °F 37.4 °F 93% 30.39 in - Calm Calm - N/A   Clear
7:00 PM 38 °F 37 °F 95% 30.42 in 12 mi Calm Calm - -  
7:00 PM 37.4 °F 37.4 °F 100% 30.39 in - Calm Calm - N/A   Clear
7:30 PM 37.4 °F 35.6 °F 93% 30.39 in - Variable 1.2 mph - N/A   Clear
8:00 PM 35.6 °F 35.6 °F 100% 30.39 in - Variable 1.2 mph - N/A   Clear
8:30 PM 35.6 °F 35.6 °F 100% 30.39 in - Variable 1.2 mph - N/A   Clear
9:00 PM 33.8 °F 33.8 °F 100% 30.39 in - ENE 1.2 mph - N/A   Clear
9:30 PM 33.8 °F 33.8 °F 100% 30.39 in - Variable 1.2 mph - N/A   Clear
10:00 PM 55 °F 54 °F 98% 29.95 in 6 mi SSW 4.5 mph - - Rain , Thunderstorm Thunderstorms and Rain
10:00 PM 55.4 °F 53.6 °F 94% 29.95 in 6.2 mi South 4.6 mph - N/A Rain , Thunderstorm Thunderstorms and Rain
10:30 PM 55.4 °F 55.4 °F 100% 29.98 in 2.5 mi Variable 1.2 mph - N/A Rain , Thunderstorm Rain
11:00 PM 55.4 °F 53.6 °F 94% 29.98 in 3.7 mi East 3.5 mph - N/A Rain , Thunderstorm Rain
11:30 PM 32.0 °F 32.0 °F 100% 30.39 in - ENE 1.2 mph - N/A   Clear